Flag for Australia Weather past 2 weeks in Perth, Western Australia, Australia

Now
64 °F

Sunny.


Feels Like: 64 °F
Forecast: 54 / 68 °F
Wind: 13 mph from North

Location: Belmont Perth Airport

Current Time: Sep 21, 2014 at 6:18:43 AM

Latest Report: Sep 21, 2014 at 6:00 AM


Visibility: 10 mi

Pressure: 29.71 "Hg

Humidity: 64%

Dew point: 52 °F

Location of PerthLocation

Historic Weather in Perth — Graph

°F

Perth temperature yesterday

Maximum temperature yesterday: 93 °F (at 2:30 PM)
Minimum temperature yesterday: 52 °F (at 1:00 AM)
Average temperature yesterday: 72 °F

Past Weeks' High & Low Weather Summary

 TemperatureHumidityPressure
High93 °F (Sep 20, 2:30 PM)100% (Sep 6, 8:00 AM)30.24 "Hg (Sep 6, 8:00 AM)
Low39 °F (Sep 14, 5:30 AM)11% (Sep 20, 2:30 PM)29.56 "Hg (Sep 7, 11:00 PM)
Average62 °F68%30.02 "Hg
* Reported Sep 6 5:00 AM — Sep 21 5:00 AM, Perth, Weather by CustomWeather, © 2014

Note: Actual official high and low records may vary slightly from our data, if they occured in-between our weather recording intervals... More about our weather records

Advertising

Perth weather history for previous 24 hours

 ConditionsComfort  
Time TempWeatherWind HumidityBarometerVisibility
5:00 AM
Sep 21
64 °FClear.14 mph64%29.71 "Hg10 mi
4:00 AM64 °FClear.14 mph64%29.71 "Hg10 mi
3:30 AM64 °FClear.14 mph64%29.74 "Hg10 mi
3:00 AM63 °FClear.12 mph73%29.74 "Hg10 mi
2:30 AM63 °FClear.10 mph77%29.74 "Hg10 mi
2:00 AM63 °FClear.12 mph83%29.77 "Hg10 mi
1:30 AM63 °FClear.12 mph83%29.80 "Hg10 mi
9:00 PM
Sep 20
66 °FPassing clouds.8 mph73%29.89 "HgN/A
8:30 PM66 °FPassing clouds.9 mph73%29.89 "HgN/A
8:00 PM66 °FClear.8 mph78%29.89 "Hg10 mi
7:30 PM68 °FClear.9 mph73%29.89 "Hg10 mi
7:00 PM70 °FClear.9 mph69%29.89 "Hg10 mi
6:00 PM72 °FClear.17 mph65%29.89 "Hg10 mi
5:30 PM75 °FClear.20 mph44%29.86 "Hg10 mi
5:00 PM77 °FSunny.17 mph30%29.83 "Hg10 mi
4:30 PM81 °FSunny.14 mph23%29.83 "Hg10 mi
4:00 PM81 °FSunny.17 mph30%29.80 "Hg10 mi
3:30 PM79 °FSunny.21 mph39%29.80 "Hg10 mi
3:05 PM93 °FSunny.24 mph11%29.77 "Hg10 mi
2:30 PM93 °FSunny.26 mph11%29.77 "Hg10 mi
2:00 PM91 °FSunny.17 mph17%29.80 "Hg10 mi
1:30 PM91 °FSunny.18 mph17%29.80 "Hg10 mi
1:00 PM90 °FSunny.20 mph20%29.83 "Hg10 mi
12:30 PM88 °FSunny.17 mph24%29.86 "Hg10 mi
12:00 PM86 °FSunny.16 mph27%29.86 "Hg10 mi
11:30 AM84 °FSunny.17 mph27%29.89 "Hg10 mi
11:00 AM82 °FSunny.18 mph28%29.92 "Hg10 mi
10:30 AM79 °FSunny.20 mph30%29.92 "Hg10 mi
10:00 AM79 °FSunny.22 mph30%29.92 "Hg10 mi
9:00 AM73 °FSunny.17 mph36%29.95 "Hg10 mi
8:00 AM70 °FSunny.16 mph38%29.95 "Hg10 mi
7:30 AM64 °FSunny.7 mph52%29.98 "Hg10 mi
7:00 AM61 °FSunny.14 mph55%29.98 "Hg10 mi
6:30 AM61 °FSunny.17 mph55%29.98 "Hg10 mi
6:00 AM61 °FSunny.20 mph55%29.98 "Hg10 mi
Weather by CustomWeather, © 2014

See weather overviewHow to use our weather pages